TimeEDT,TemperatureF,Dew PointF,Humidity,Sea Level PressureIn,VisibilityMPH,Wind Direction,Wind SpeedMPH,Gust SpeedMPH,PrecipitationIn,Events,Conditions,WindDirDegrees,DateUTC
12:15 AM,37.4,37.4,100,30.20,2.0,ENE,8.1,-,N/A,,Drizzle,70,2013-03-18 04:15:00
12:35 AM,37.4,37.4,100,30.19,2.0,ENE,6.9,-,N/A,,Drizzle,60,2013-03-18 04:35:00
12:55 AM,37.4,37.4,100,30.19,2.5,NE,9.2,-,N/A,,Drizzle,50,2013-03-18 04:55:00
1:15 AM,35.6,35.6,100,30.19,2.5,ENE,9.2,-,N/A,,Drizzle,60,2013-03-18 05:15:00
1:35 AM,35.6,35.6,100,30.19,2.5,ENE,6.9,-,N/A,,Drizzle,60,2013-03-18 05:35:00
1:55 AM,35.6,35.6,100,30.19,3.0,NE,9.2,-,N/A,,Drizzle,50,2013-03-18 05:55:00
2:15 AM,35.6,35.6,100,30.19,3.0,NE,8.1,-,N/A,,Drizzle,50,2013-03-18 06:15:00
2:35 AM,35.6,35.6,100,30.19,4.0,ENE,9.2,-,N/A,,Overcast,70,2013-03-18 06:35:00
2:55 AM,35.6,35.6,100,30.19,5.0,NE,6.9,-,N/A,,Overcast,50,2013-03-18 06:55:00
3:15 AM,35.6,35.6,100,30.19,3.0,ENE,8.1,-,N/A,,Overcast,70,2013-03-18 07:15:00
3:35 AM,35.6,35.6,100,30.17,2.5,East,6.9,-,N/A,,Drizzle,90,2013-03-18 07:35:00
3:55 AM,35.6,35.6,100,30.17,2.0,ENE,6.9,-,N/A,,Drizzle,60,2013-03-18 07:55:00
4:15 AM,35.6,35.6,100,30.17,2.5,ENE,8.1,-,N/A,,Drizzle,60,2013-03-18 08:15:00
4:35 AM,35.6,35.6,100,30.17,2.5,ENE,6.9,-,N/A,,Drizzle,60,2013-03-18 08:35:00
4:55 AM,35.6,35.6,100,30.18,2.5,ENE,6.9,-,N/A,,Drizzle,60,2013-03-18 08:55:00
5:15 AM,35.6,35.6,100,30.19,3.0,ENE,5.8,-,N/A,,Overcast,70,2013-03-18 09:15:00
5:35 AM,35.6,35.6,100,30.19,3.0,East,5.8,-,N/A,,Overcast,80,2013-03-18 09:35:00
5:55 AM,35.6,35.6,100,30.19,2.5,NE,5.8,-,N/A,,Drizzle,50,2013-03-18 09:55:00
6:15 AM,35.6,35.6,100,30.20,3.0,ENE,6.9,-,N/A,,Light Drizzle,60,2013-03-18 10:15:00
6:35 AM,35.6,35.6,100,30.20,3.0,ENE,8.1,-,N/A,,Overcast,70,2013-03-18 10:35:00
6:55 AM,35.6,35.6,100,30.21,4.0,ENE,11.5,16.1,N/A,,Overcast,60,2013-03-18 10:55:00
7:15 AM,35.6,35.6,100,30.20,3.0,ENE,8.1,-,N/A,,Overcast,70,2013-03-18 11:15:00
7:35 AM,35.6,35.6,100,30.21,4.0,ENE,9.2,-,N/A,,Overcast,70,2013-03-18 11:35:00
7:55 AM,35.6,35.6,100,30.21,2.5,ENE,6.9,-,N/A,,Overcast,70,2013-03-18 11:55:00
8:15 AM,35.6,35.6,100,30.22,2.0,ENE,5.8,-,N/A,,Overcast,60,2013-03-18 12:15:00
8:35 AM,35.6,35.6,100,30.21,2.0,ENE,9.2,-,N/A,,Light Drizzle,60,2013-03-18 12:35:00
8:55 AM,35.6,35.6,100,30.22,2.0,NE,9.2,-,N/A,,Light Drizzle,50,2013-03-18 12:55:00
9:15 AM,35.6,35.6,100,30.22,2.5,ENE,6.9,-,N/A,,Overcast,70,2013-03-18 13:15:00
9:35 AM,35.6,35.6,100,30.19,2.0,ENE,12.7,-,N/A,,Overcast,70,2013-03-18 13:35:00
9:55 AM,35.6,35.6,100,30.18,2.5,East,10.4,-,N/A,,Overcast,80,2013-03-18 13:55:00
10:15 AM,35.6,35.6,100,30.18,4.0,ENE,10.4,-,N/A,,Overcast,70,2013-03-18 14:15:00
10:35 AM,35.6,35.6,100,30.19,3.0,NE,6.9,-,N/A,,Overcast,50,2013-03-18 14:35:00
10:55 AM,35.6,35.6,100,30.17,1.8,ENE,9.2,-,N/A,,Overcast,60,2013-03-18 14:55:00
11:15 AM,35.6,35.6,100,30.17,1.8,ENE,6.9,-,N/A,,Overcast,60,2013-03-18 15:15:00
11:35 AM,35.6,35.6,100,30.17,2.5,ENE,8.1,-,N/A,,Light Drizzle,60,2013-03-18 15:35:00
11:55 AM,35.6,35.6,100,30.15,1.8,ENE,6.9,-,N/A,,Drizzle,60,2013-03-18 15:55:00
12:15 PM,35.6,35.6,100,30.14,2.0,ENE,6.9,-,N/A,,Light Drizzle,70,2013-03-18 16:15:00
12:35 PM,37.4,37.4,100,30.14,2.0,East,5.8,-,N/A,,Light Drizzle,90,2013-03-18 16:35:00
12:55 PM,37.4,37.4,100,30.15,2.5,East,3.5,-,N/A,,Overcast,90,2013-03-18 16:55:00
1:15 PM,37.4,37.4,100,30.13,2.0,ENE,5.8,-,N/A,,Light Drizzle,70,2013-03-18 17:15:00
1:35 PM,37.4,37.4,100,30.12,2.5,East,4.6,-,N/A,,Light Drizzle,90,2013-03-18 17:35:00
1:55 PM,37.4,37.4,100,30.12,4.0,Calm,Calm,-,N/A,,Overcast,0,2013-03-18 17:55:00
2:15 PM,37.4,37.4,100,30.08,3.0,East,6.9,-,N/A,,Overcast,100,2013-03-18 18:15:00
2:35 PM,37.4,37.4,100,30.07,2.5,East,3.5,-,N/A,,Overcast,80,2013-03-18 18:35:00
2:55 PM,37.4,37.4,100,30.06,1.5,East,3.5,-,N/A,,Drizzle,80,2013-03-18 18:55:00
3:15 PM,39.2,39.2,100,30.04,2.5,East,5.8,-,N/A,,Light Drizzle,90,2013-03-18 19:15:00
3:35 PM,39.2,39.2,100,30.03,2.5,ENE,4.6,-,N/A,,Overcast,70,2013-03-18 19:35:00
3:55 PM,39.2,39.2,100,30.03,4.0,NE,3.5,-,N/A,,Overcast,50,2013-03-18 19:55:00
4:15 PM,39.2,39.2,100,30.03,2.5,NE,4.6,-,N/A,,Overcast,40,2013-03-18 20:15:00
4:35 PM,39.2,39.2,100,30.02,2.5,NNE,3.5,-,N/A,,Overcast,30,2013-03-18 20:35:00
4:55 PM,39.2,39.2,100,30.02,2.5,NNE,3.5,-,N/A,,Overcast,20,2013-03-18 20:55:00
5:15 PM,39.2,39.2,100,30.01,3.0,NE,4.6,-,N/A,,Overcast,40,2013-03-18 21:15:00
5:35 PM,39.2,39.2,100,30.01,2.5,ENE,4.6,-,N/A,,Overcast,60,2013-03-18 21:35:00
5:55 PM,39.2,39.2,100,30.01,2.5,NNE,3.5,-,N/A,,Overcast,20,2013-03-18 21:55:00
6:15 PM,39.2,39.2,100,30.00,1.8,NNE,3.5,-,N/A,,Heavy Drizzle,30,2013-03-18 22:15:00
6:35 PM,39.2,39.2,100,30.00,2.5,NE,3.5,-,N/A,,Overcast,40,2013-03-18 22:35:00
6:55 PM,37.4,37.4,100,30.00,2.0,NNE,3.5,-,N/A,,Overcast,30,2013-03-18 22:55:00
7:15 PM,37.4,37.4,100,30.01,3.0,North,3.5,-,N/A,,Light Drizzle,10,2013-03-18 23:15:00
7:35 PM,37.4,37.4,100,29.98,3.0,NE,4.6,-,N/A,,Overcast,50,2013-03-18 23:35:00
7:55 PM,37.4,37.4,100,30.00,7.0,NNW,4.6,-,0.02,Rain-Thunderstorm,Light Thunderstorms and Rain,330,2013-03-18 23:55:00
8:15 PM,37.4,37.4,100,30.02,5.0,NNW,5.8,-,N/A,Rain-Thunderstorm,Rain,340,2013-03-19 00:15:00
8:35 PM,37.4,37.4,100,30.03,10.0,NW,6.9,-,0.03,Rain-Thunderstorm,Light Thunderstorms and Rain,320,2013-03-19 00:35:00
8:55 PM,37.4,37.4,100,30.00,4.0,North,3.5,-,0.07,Rain,Heavy Rain,360,2013-03-19 00:55:00
9:15 PM,37.4,37.4,100,30.00,4.0,NNW,4.6,-,0.05,Rain,Light Rain,330,2013-03-19 01:15:00
9:35 PM,37.4,37.4,100,29.99,10.0,Calm,Calm,-,0.06,Rain,Light Rain,0,2013-03-19 01:35:00
9:55 PM,35.6,35.6,100,29.98,10.0,Calm,Calm,-,0.06,,Overcast,0,2013-03-19 01:55:00
10:15 PM,37.4,37.4,100,29.93,10.0,SE,9.2,-,N/A,,Overcast,140,2013-03-19 02:15:00
10:35 PM,35.6,35.6,100,29.90,10.0,SE,8.1,19.6,N/A,,Mostly Cloudy,140,2013-03-19 02:35:00
10:55 PM,35.6,35.6,100,29.89,10.0,SSE,6.9,-,N/A,,Mostly Cloudy,150,2013-03-19 02:55:00
11:15 PM,37.4,37.4,100,29.89,10.0,SSE,3.5,-,N/A,,Overcast,160,2013-03-19 03:15:00
11:35 PM,37.4,37.4,100,29.88,10.0,Calm,Calm,-,N/A,,Overcast,0,2013-03-19 03:35:00
11:55 PM,37.4,37.4,100,29.91,10.0,NNW,5.8,-,N/A,,Overcast,340,2013-03-19 03:55:00